METAR AND TAF INFORMATION

LEBL 211630Z 07020KT 9999 FEW040 17/11 Q1009 NOSIG
TAF LEBL 211100Z 2112/2212 04020KT 9999 FEW040 TX19/2112Z TN15/2206Z TEMPO 2112/2212 05025G40KT PROB30 TEMPO 2120/2210 4000 TSRA SCT025CB BKN040

 AIRPORT MAP

 RUNWAY INFORMATION
Runway 02 Runway length 8333 ft Runway width 148 ft
Runway elevation 7 ft Runway displaced threshold 131 ft Runway heading 19
Runway 20 Runway length 8333 ft Runway width 148 ft
Runway elevation 12 ft Runway displaced threshold 0 ft Runway heading 199
Runway 07L Runway length 11654 ft Runway width 148 ft
Runway elevation 8 ft Runway displaced threshold 295 ft Runway heading 66
Runway 25R Runway length 11654 ft Runway width 148 ft
Runway elevation 10 ft Runway displaced threshold 0 ft Runway heading 246
Runway 07R Runway length 8727 ft Runway width 197 ft
Runway elevation 8 ft Runway displaced threshold 0 ft Runway heading 66
Runway 25L Runway length 8727 ft Runway width 197 ft
Runway elevation 8 ft Runway displaced threshold 0 ft Runway heading 246

 AIRPORT FREQUENCIES
Type APP Name APP Frequency 119.1 MHZ
Type ATIS Name ATIS Frequency 118.65 MHZ
Type CLD Name CLNC DEL Frequency 121.8 MHZ
Type GND Name GND Frequency 121.65 MHZ
Type TWR Name TWR Frequency 118.1 MHZ

 AIRPORT NEAR NAVIGATION AIDS
Type VOR-DME Name Barcelona Frequency 116700 KHZ
Type VOR-DME Name El Prat Frequency 114300 KHZ
Type VOR-DME Name Sabadell Frequency 112000 KHZ
Type NDB Name Villanueva Frequency 380 KHZ